When you browse on this site, cookies collect data to enhance your experience and personalize the content and advertising you see.
Visit our Privacy Policy to learn more. By continuing to use the site, you agree to this use of cookies and data.
  • In Portugal
  • List of Countries
  • For 7 days
  • Water Temperature
  • Satellite Maps
  • Weather Map
  • Weather Widgets
  • user-avatar
    Login

    Hourly Weather Gelmec

    Today, 26 June, Wednesday

    Time Temperature Precipitation Wind Pressure Humidity
    00:00 +15°C° 0 mm 1 mps 620 mmHg 62%
    01:00 +15°C° 0 mm 1 mps 620 mmHg 62%
    02:00 +15°C° 0 mm 1 mps 620 mmHg 62%
    03:00 +14°C° 0 mm 1 mps 620 mmHg 63%
    04:00 +16°C° 0 mm 1 mps 621 mmHg 60%
    05:00 +18°C° 0 mm 1 mps 622 mmHg 58%
    06:00 +20°C° 0 mm 1 mps 622 mmHg 55%
    07:00 +21°C° 0 mm 1 mps 623 mmHg 52%
    08:00 +23°C° 0 mm 2 mps 623 mmHg 48%
    09:00 +24°C° 0 mm 2 mps 624 mmHg 45%
    10:00 +24°C° 0.1 mm 2 mps 624 mmHg 45%
    11:00 +25°C° 0.1 mm 3 mps 624 mmHg 46%
    12:00 +25°C° 0.1 mm 3 mps 624 mmHg 47%
    13:00 +25°C° 0.3 mm 3 mps 624 mmHg 47%
    14:00 +25°C° 0.3 mm 3 mps 624 mmHg 47%
    15:00 +25°C° 0.3 mm 2 mps 623 mmHg 48%
    16:00 +24°C° 0.3 mm 2 mps 623 mmHg 51%
    17:00 +24°C° 0.3 mm 2 mps 623 mmHg 54%
    18:00 +23°C° 0.3 mm 2 mps 623 mmHg 57%
    19:00 +20°C° 0.1 mm 2 mps 622 mmHg 62%
    20:00 +19°C° 0.1 mm 1 mps 621 mmHg 67%
    21:00 +15°C° 0.1 mm 1 mps 620 mmHg 71%
    22:00 +15°C° 0 mm 1 mps 620 mmHg 73%
    23:00 +14°C° 0 mm 1 mps 620 mmHg 75%

    Tomorrow, 27 June, Thursday

    Time Temperature Precipitation Wind Pressure Humidity
    00:00 +14°C° 0 mm 1 mps 619 mmHg 77%
    01:00 +14°C° 0 mm 1 mps 619 mmHg 77%
    02:00 +14°C° 0 mm 1 mps 619 mmHg 77%
    03:00 +14°C° 0 mm 1 mps 619 mmHg 77%
    04:00 +15°C° 0.1 mm 1 mps 619 mmHg 75%
    05:00 +16°C° 0.1 mm 1 mps 620 mmHg 73%
    06:00 +19°C° 0.1 mm 1 mps 620 mmHg 71%
    07:00 +20°C° 0.2 mm 1 mps 621 mmHg 70%
    08:00 +19°C° 0.2 mm 2 mps 621 mmHg 68%
    09:00 +20°C° 0.2 mm 2 mps 621 mmHg 67%
    10:00 +20°C° 0.7 mm 2 mps 621 mmHg 69%
    11:00 +20°C° 0.7 mm 2 mps 621 mmHg 71%
    12:00 +20°C° 0.7 mm 2 mps 620 mmHg 73%
    13:00 +20°C° 0.7 mm 2 mps 620 mmHg 72%
    14:00 +20°C° 0.7 mm 2 mps 620 mmHg 72%
    15:00 +21°C° 0.7 mm 2 mps 619 mmHg 71%
    16:00 +20°C° 0.4 mm 2 mps 619 mmHg 73%
    17:00 +21°C° 0.4 mm 1 mps 619 mmHg 75%
    18:00 +20°C° 0.4 mm 1 mps 618 mmHg 77%
    19:00 +19°C° 0.1 mm 1 mps 618 mmHg 81%
    20:00 +16°C° 0.1 mm 1 mps 617 mmHg 84%
    21:00 +15°C° 0.1 mm 1 mps 617 mmHg 87%
    22:00 +14°C° 0.1 mm 1 mps 616 mmHg 88%
    23:00 +14°C° 0.1 mm 1 mps 616 mmHg 89%

    Day after tomorrow, 28 June, Friday

    Time Temperature Precipitation Wind Pressure Humidity
    00:00 +14°C° 0.1 mm 1 mps 616 mmHg 89%
    01:00 +13°C° 0 mm 1 mps 615 mmHg 88%
    02:00 +13°C° 0 mm 1 mps 615 mmHg 87%
    03:00 +13°C° 0 mm 1 mps 615 mmHg 86%
    04:00 +14°C° 0 mm 1 mps 615 mmHg 84%
    05:00 +15°C° 0 mm 1 mps 615 mmHg 81%
    06:00 +16°C° 0 mm 1 mps 616 mmHg 79%
    07:00 +19°C° 0 mm 1 mps 616 mmHg 75%
    08:00 +19°C° 0 mm 2 mps 616 mmHg 70%
    09:00 +20°C° 0 mm 2 mps 617 mmHg 66%
    10:00 +21°C° 0.6 mm 2 mps 616 mmHg 66%
    11:00 +21°C° 0.6 mm 2 mps 616 mmHg 67%
    12:00 +21°C° 0.6 mm 2 mps 616 mmHg 67%
    13:00 +23°C° 0.8 mm 2 mps 616 mmHg 64%
    14:00 +23°C° 0.8 mm 2 mps 616 mmHg 61%
    15:00 +23°C° 0.8 mm 2 mps 615 mmHg 58%
    16:00 +23°C° 0.5 mm 2 mps 615 mmHg 62%
    17:00 +21°C° 0.5 mm 2 mps 614 mmHg 66%
    18:00 +20°C° 0.5 mm 2 mps 614 mmHg 70%
    19:00 +19°C° 0 mm 2 mps 613 mmHg 73%
    20:00 +17°C° 0 mm 2 mps 613 mmHg 77%
    21:00 +15°C° 0 mm 1 mps 613 mmHg 81%
    22:00 +15°C° 0 mm 1 mps 613 mmHg 81%
    23:00 +15°C° 0 mm 1 mps 613 mmHg 82%

    29 June, Saturday

    Time Temperature Precipitation Wind Pressure Humidity
    00:00 +15°C° 0 mm 1 mps 613 mmHg 82%
    01:00 +15°C° 0 mm 1 mps 613 mmHg 81%
    02:00 +16°C° 0 mm 1 mps 613 mmHg 81%
    03:00 +16°C° 0 mm 1 mps 613 mmHg 80%
    04:00 +16°C° 0 mm 1 mps 613 mmHg 79%
    05:00 +18°C° 0 mm 1 mps 613 mmHg 78%
    06:00 +18°C° 0 mm 1 mps 613 mmHg 77%
    07:00 +19°C° 0.1 mm 1 mps 614 mmHg 72%
    08:00 +20°C° 0.1 mm 2 mps 614 mmHg 68%
    09:00 +21°C° 0.1 mm 2 mps 615 mmHg 63%
    10:00 +21°C° 0.7 mm 3 mps 615 mmHg 64%
    11:00 +22°C° 0.7 mm 3 mps 615 mmHg 64%
    12:00 +22°C° 0.7 mm 3 mps 615 mmHg 64%
    13:00 +21°C° 1.4 mm 3 mps 615 mmHg 67%
    14:00 +21°C° 1.4 mm 3 mps 614 mmHg 71%
    15:00 +20°C° 1.4 mm 2 mps 614 mmHg 75%
    16:00 +20°C° 1 mm 2 mps 614 mmHg 74%
    17:00 +20°C° 1 mm 2 mps 614 mmHg 73%
    18:00 +21°C° 1 mm 1 mps 614 mmHg 72%
    19:00 +19°C° 0.7 mm 1 mps 615 mmHg 79%
    20:00 +18°C° 0.7 mm 1 mps 615 mmHg 87%
    21:00 +16°C° 0.7 mm 1 mps 615 mmHg 94%
    22:00 +15°C° 2.6 mm 1 mps 615 mmHg 93%
    23:00 +15°C° 2.6 mm 1 mps 615 mmHg 92%

    30 June, Sunday

    Time Temperature Precipitation Wind Pressure Humidity
    00:00 +15°C° 2.6 mm 1 mps 615 mmHg 91%
    01:00 +14°C° 0.1 mm 1 mps 614 mmHg 90%
    02:00 +14°C° 0.1 mm 1 mps 614 mmHg 90%
    03:00 +13°C° 0.1 mm 0 mps 614 mmHg 89%
    04:00 +14°C° 0 mm 1 mps 615 mmHg 88%
    05:00 +15°C° 0 mm 1 mps 615 mmHg 87%
    06:00 +15°C° 0 mm 1 mps 615 mmHg 86%
    07:00 +16°C° 0.2 mm 1 mps 615 mmHg 83%
    08:00 +17°C° 0.2 mm 2 mps 616 mmHg 81%
    09:00 +18°C° 0.2 mm 3 mps 616 mmHg 79%
    10:00 +18°C° 0.6 mm 3 mps 616 mmHg 79%
    11:00 +19°C° 0.6 mm 3 mps 616 mmHg 79%
    12:00 +19°C° 0.6 mm 3 mps 616 mmHg 80%
    13:00 +19°C° 0.7 mm 3 mps 616 mmHg 81%
    14:00 +18°C° 0.7 mm 3 mps 616 mmHg 83%
    15:00 +18°C° 0.7 mm 3 mps 615 mmHg 84%
    16:00 +18°C° 0.5 mm 2 mps 616 mmHg 86%
    17:00 +17°C° 0.5 mm 2 mps 616 mmHg 88%
    18:00 +18°C° 0.5 mm 1 mps 616 mmHg 89%
    19:00 +16°C° 0.5 mm 1 mps 616 mmHg 92%
    20:00 +15°C° 0.5 mm 2 mps 616 mmHg 95%
    21:00 +15°C° 0.5 mm 2 mps 616 mmHg 97%
    22:00 +15°C° 1.1 mm 2 mps 616 mmHg 98%
    23:00 +15°C° 1.1 mm 2 mps 616 mmHg 98%

    1 July, Monday

    Time Temperature Precipitation Wind Pressure Humidity
    00:00 +14°C° 1.1 mm 1 mps 616 mmHg 98%
    01:00 +14°C° 2.1 mm 2 mps 616 mmHg 98%
    02:00 +14°C° 2.1 mm 2 mps 616 mmHg 98%
    03:00 +14°C° 2.1 mm 2 mps 616 mmHg 99%
    04:00 +14°C° 2.1 mm 2 mps 616 mmHg 98%
    05:00 +14°C° 2.1 mm 2 mps 616 mmHg 98%
    06:00 +13°C° 2.1 mm 2 mps 616 mmHg 98%
    07:00 +13°C° 2.2 mm 2 mps 616 mmHg 98%
    08:00 +13°C° 2.2 mm 2 mps 616 mmHg 98%
    09:00 +13°C° 2.2 mm 2 mps 616 mmHg 98%
    10:00 +12°C° 3.1 mm 3 mps 616 mmHg 98%
    11:00 +12°C° 3.1 mm 3 mps 616 mmHg 98%
    12:00 +12°C° 3.1 mm 3 mps 616 mmHg 98%
    13:00 +12°C° 1.7 mm 3 mps 616 mmHg 98%
    14:00 +13°C° 1.7 mm 2 mps 616 mmHg 98%
    15:00 +12°C° 1.7 mm 2 mps 616 mmHg 97%
    16:00 +12°C° 1.6 mm 2 mps 616 mmHg 97%
    17:00 +12°C° 1.6 mm 2 mps 616 mmHg 98%
    18:00 +12°C° 1.6 mm 1 mps 616 mmHg 98%
    19:00 +12°C° 1.1 mm 1 mps 617 mmHg 97%
    20:00 +11°C° 1.1 mm 1 mps 617 mmHg 97%
    21:00 +11°C° 1.1 mm 1 mps 617 mmHg 96%
    22:00 +11°C° 1.2 mm 1 mps 617 mmHg 95%
    23:00 +10°C° 1.2 mm 1 mps 616 mmHg 95%
    Show more